,,,PA_Meas_PMT16A,,PR_Meas_QMR101_102,,RH_Meas_QMH101,,SR_Meas_QMS101,,TA_Meas_QMH101,,GenWind,,GenWind,
date,time,status,PA,status,PR,status,RH,status,SR,status,TA,status,DirAvg,status,SpdAvg,
2009-12-24, 00:00:05,VALID,1000.91,VALID,0,VALID,90.411,VALID,0,VALID,23.7012,VALID,90,VALID,0,
2009-12-24, 00:01:05,VALID,1000.89,VALID,0,VALID,90.4263,VALID,0,VALID,23.6817,VALID,90,VALID,0,
2009-12-24, 00:02:05,VALID,1000.88,VALID,0,VALID,90.472,VALID,0,VALID,23.6427,VALID,90,VALID,0,
2009-12-24, 00:03:05,VALID,1000.87,VALID,0,VALID,90.678,VALID,0,VALID,23.6232,VALID,90,VALID,0,
2009-12-24, 00:04:05,VALID,1000.85,VALID,0,VALID,90.9298,VALID,0,VALID,23.6019,VALID,92,VALID,0,
2009-12-24, 00:05:05,VALID,1000.85,VALID,0,VALID,91.3952,VALID,0,VALID,23.6427,VALID,114,VALID,0,
2009-12-24, 00:06:05,VALID,1000.86,VALID,0,VALID,91.2579,VALID,0,VALID,23.6214,VALID,114,VALID,0,
2009-12-24, 00:07:05,VALID,1000.86,VALID,0,VALID,91.2731,VALID,0,VALID,23.6232,VALID,125,VALID,0.277734,
2009-12-24, 00:08:05,VALID,1000.84,VALID,0,VALID,91.2045,VALID,0,VALID,23.6232,VALID,125,VALID,0.174219,
2009-12-24, 00:09:05,VALID,1000.83,VALID,0,VALID,91.1587,VALID,0,VALID,23.6036,VALID,125,VALID,0,
2009-12-24, 00:10:05,VALID,1000.79,VALID,0,VALID,91.1663,VALID,0,VALID,23.5841,VALID,125,VALID,0,
2009-12-24, 00:11:05,VALID,1000.79,VALID,0,VALID,91.296,VALID,0,VALID,23.5628,VALID,125,VALID,0,
2009-12-24, 00:12:05,VALID,1000.76,VALID,0,VALID,91.3266,VALID,0,VALID,23.5646,VALID,125,VALID,0,
2009-12-24, 00:13:05,VALID,1000.8,VALID,0,VALID,91.3876,VALID,0,VALID,23.5451,VALID,125,VALID,0,
2009-12-24, 00:14:05,VALID,1000.78,VALID,0,VALID,91.5326,VALID,0,VALID,23.5451,VALID,125,VALID,0,
2009-12-24, 00:15:05,VALID,1000.77,VALID,0,VALID,91.5707,VALID,0,VALID,23.5256,VALID,125,VALID,0,
2009-12-24, 00:16:05,VALID,1000.79,VALID,0,VALID,91.4868,VALID,0,VALID,23.5256,VALID,125,VALID,0,
2009-12-24, 00:17:05,VALID,1000.8,VALID,0,VALID,91.441,VALID,0,VALID,23.5061,VALID,131,VALID,0.933594,
2009-12-24, 00:18:05,VALID,1000.78,VALID,0,VALID,91.4181,VALID,0,VALID,23.5256,VALID,127,VALID,1.23633,
2009-12-24, 00:19:05,VALID,1000.74,VALID,0,VALID,91.2808,VALID,0,VALID,23.5841,VALID,127,VALID,0.948047,
2009-12-24, 00:20:05,VALID,1000.74,VALID,0,VALID,91.0671,VALID,0,VALID,23.6427,VALID,127,VALID,0.85625,
2009-12-24, 00:21:05,VALID,1000.68,VALID,0,VALID,90.8001,VALID,0,VALID,23.7012,VALID,133,VALID,0.946094,
2009-12-24, 00:22:05,VALID,1000.65,VALID,0,VALID,90.6399,VALID,0,VALID,23.7402,VALID,133,VALID,0.761328,
2009-12-24, 00:23:05,VALID,1000.64,VALID,0,VALID,90.3957,VALID,0,VALID,23.7793,VALID,133,VALID,0.641016,
2009-12-24, 00:24:05,VALID,1000.61,VALID,0,VALID,90.266,VALID,0,VALID,23.797,VALID,133,VALID,0.487109,
2009-12-24, 00:25:05,VALID,1000.59,VALID,0,VALID,90.0982,VALID,0,VALID,23.8573,VALID,133,VALID,0.260156,
2009-12-24, 00:26:05,VALID,1000.57,VALID,0,VALID,89.9227,VALID,0,VALID,23.8963,VALID,133,VALID,0.457812,
2009-12-24, 00:27:05,VALID,1000.56,VALID,0,VALID,89.732,VALID,0,VALID,23.9354,VALID,133,VALID,0.563672,
2009-12-24, 00:28:05,VALID,1000.55,VALID,0,VALID,89.5946,VALID,0,VALID,23.9549,VALID,133,VALID,0.564844,
2009-12-24, 00:29:05,VALID,1000.55,VALID,0,VALID,89.3734,VALID,0,VALID,23.9549,VALID,133,VALID,0.605859,
2009-12-24, 00:30:05,VALID,1000.52,VALID,0,VALID,89.4726,VALID,0,VALID,23.9744,VALID,133,VALID,0.521875,
2009-12-24, 00:31:05,VALID,1000.49,VALID,0,VALID,89.2818,VALID,0,VALID,23.9939,VALID,133,VALID,0.304688,
2009-12-24, 00:32:05,VALID,1000.45,VALID,0,VALID,89.1445,VALID,0,VALID,23.9939,VALID,133,VALID,0,
2009-12-24, 00:33:05,VALID,1000.44,VALID,0,VALID,89.0148,VALID,0,VALID,23.9744,VALID,133,VALID,0,
2009-12-24, 00:34:05,VALID,1000.44,VALID,0,VALID,89.03,VALID,0,VALID,23.9354,VALID,133,VALID,0,
2009-12-24, 00:35:05,VALID,1000.43,VALID,0,VALID,89.1368,VALID,0,VALID,23.9159,VALID,133,VALID,0,
2009-12-24, 00:36:05,VALID,1000.42,VALID,0,VALID,89.442,VALID,0,VALID,23.8555,VALID,133,VALID,0,
2009-12-24, 00:37:05,VALID,1000.4,VALID,0,VALID,89.7014,VALID,0,VALID,23.8573,VALID,133,VALID,0,
2009-12-24, 00:38:05,VALID,1000.41,VALID,0,VALID,89.7396,VALID,0,VALID,23.8378,VALID,133,VALID,0,
2009-12-24, 00:39:05,VALID,1000.4,VALID,0,VALID,89.8006,VALID,0,VALID,23.797,VALID,133,VALID,0,
2009-12-24, 00:40:05,VALID,1000.41,VALID,0,VALID,89.8922,VALID,0,VALID,23.7988,VALID,133,VALID,0,
2009-12-24, 00:41:05,VALID,1000.35,VALID,0,VALID,89.9532,VALID,0,VALID,23.7775,VALID,133,VALID,0,
2009-12-24, 00:42:05,VALID,1000.35,VALID,0,VALID,90.0295,VALID,0,VALID,23.7597,VALID,133,VALID,0,
2009-12-24, 00:43:05,VALID,1000.35,VALID,0,VALID,90.06,VALID,0,VALID,23.7402,VALID,133,VALID,0,
2009-12-24, 00:44:05,VALID,1000.33,VALID,0,VALID,90.0829,VALID,0,VALID,23.7207,VALID,133,VALID,0,
2009-12-24, 00:45:05,VALID,1000.31,VALID,0,VALID,90.2279,VALID,0,VALID,23.7012,VALID,133,VALID,0,
2009-12-24, 00:46:05,VALID,1000.29,VALID,0,VALID,90.3652,VALID,0,VALID,23.6427,VALID,133,VALID,0,
2009-12-24, 00:47:05,VALID,1000.27,VALID,0,VALID,90.4491,VALID,0,VALID,23.6232,VALID,133,VALID,0,
2009-12-24, 00:48:05,VALID,1000.27,VALID,0,VALID,90.5026,VALID,0,VALID,23.5841,VALID,133,VALID,0,
2009-12-24, 00:49:05,VALID,1000.25,VALID,0,VALID,90.6323,VALID,0,VALID,23.5646,VALID,134,VALID,0.188281,
2009-12-24, 00:50:04,VALID,1000.21,VALID,0,VALID,90.5941,VALID,0,VALID,23.5646,VALID,143,VALID,1.21445,
2009-12-24, 00:51:04,VALID,1000.21,VALID,0,VALID,90.4797,VALID,0,VALID,23.5823,VALID,143,VALID,0.756641,
2009-12-24, 00:52:04,VALID,1000.19,VALID,0,VALID,90.266,VALID,0,VALID,23.6817,VALID,143,VALID,0.840625,
2009-12-24, 00:53:04,VALID,1000.17,VALID,0,VALID,90.0982,VALID,0,VALID,23.7207,VALID,143,VALID,0.380859,
2009-12-24, 00:54:04,VALID,1000.18,VALID,0,VALID,89.8769,VALID,0,VALID,23.7793,VALID,143,VALID,0.809766,
2009-12-24, 00:55:04,VALID,1000.15,VALID,0,VALID,89.2666,VALID,0,VALID,23.7988,VALID,142,VALID,0.826172,
2009-12-24, 00:56:04,VALID,1000.15,VALID,0,VALID,89.3352,VALID,0,VALID,23.7775,VALID,137,VALID,0.872266,
2009-12-24, 00:57:04,VALID,1000.12,VALID,0,VALID,89.3352,VALID,0,VALID,23.7775,VALID,136,VALID,0.569531,
2009-12-24, 00:58:04,VALID,1000.15,VALID,0,VALID,89.236,VALID,0,VALID,23.7793,VALID,128,VALID,0.569922,
2009-12-24, 00:59:04,VALID,1000.15,VALID,0,VALID,89.3657,VALID,0,VALID,23.7402,VALID,120,VALID,0.69375,
2009-12-24, 01:00:04,VALID,1000.12,VALID,0,VALID,89.4878,VALID,0,VALID,23.7207,VALID,120,VALID,0.811719,
2009-12-24, 01:01:04,VALID,1000.07,VALID,0,VALID,89.6404,VALID,0,VALID,23.7012,VALID,119,VALID,0.707031,
2009-12-24, 01:02:04,VALID,1000.08,VALID,0,VALID,89.8846,VALID,0,VALID,23.6799,VALID,118,VALID,0.626172,
2009-12-24, 01:03:04,VALID,1000.05,VALID,0,VALID,89.7396,VALID,0,VALID,23.6817,VALID,118,VALID,0.713672,
2009-12-24, 01:04:04,VALID,1000.08,VALID,0,VALID,89.999,VALID,0,VALID,23.6817,VALID,116,VALID,0.626953,
2009-12-24, 01:05:04,VALID,1000.05,VALID,0,VALID,90.06,VALID,0,VALID,23.6817,VALID,114,VALID,0.684766,
2009-12-24, 01:06:04,VALID,1000.03,VALID,0,VALID,90.0066,VALID,0,VALID,23.6622,VALID,113,VALID,0.516797,
2009-12-24, 01:07:04,VALID,1000.06,VALID,0,VALID,90.0982,VALID,0,VALID,23.6604,VALID,110,VALID,0.519531,
2009-12-24, 01:08:04,VALID,1000.09,VALID,0,VALID,90.3805,VALID,0,VALID,23.6817,VALID,100,VALID,0.561719,
2009-12-24, 01:09:04,VALID,1000.08,VALID,0,VALID,90.2584,VALID,0,VALID,23.6604,VALID,100,VALID,0.594141,
2009-12-24, 01:10:04,VALID,1000.07,VALID,0,VALID,90.617,VALID,0,VALID,23.6817,VALID,100,VALID,0.594141,
2009-12-24, 01:11:04,VALID,1000.07,VALID,0,VALID,90.8993,VALID,0,VALID,23.6817,VALID,100,VALID,0.583203,
2009-12-24, 01:12:04,VALID,1000.09,VALID,0,VALID,90.617,VALID,0,VALID,23.6622,VALID,100,VALID,0.440625,
2009-12-24, 01:13:04,VALID,1000.05,VALID,0,VALID,90.7391,VALID,0,VALID,23.6427,VALID,100,VALID,0.525781,
2009-12-24, 01:14:04,VALID,1000.03,VALID,0,VALID,90.8764,VALID,0,VALID,23.6036,VALID,100,VALID,0.659766,
2009-12-24, 01:15:04,VALID,1000.04,VALID,0,VALID,90.8383,VALID,0,VALID,23.5841,VALID,100,VALID,0.790625,
2009-12-24, 01:16:04,VALID,1000.02,VALID,0,VALID,91.1358,VALID,0,VALID,23.5238,VALID,104,VALID,0.705469,
2009-12-24, 01:17:04,VALID,999.99,VALID,0,VALID,91.2655,VALID,0,VALID,23.5256,VALID,107,VALID,0.838672,
2009-12-24, 01:18:04,VALID,999.991,VALID,0,VALID,91.502,VALID,0,VALID,23.5061,VALID,107,VALID,0.515234,
2009-12-24, 01:19:04,VALID,999.958,VALID,0,VALID,91.4334,VALID,0,VALID,23.5061,VALID,114,VALID,0,
2009-12-24, 01:20:04,VALID,999.911,VALID,0,VALID,91.3723,VALID,0,VALID,23.4475,VALID,114,VALID,0,
2009-12-24, 01:21:04,VALID,999.933,VALID,0,VALID,91.502,VALID,0,VALID,23.4067,VALID,114,VALID,0,
2009-12-24, 01:22:04,VALID,999.867,VALID,0,VALID,91.5478,VALID,0,VALID,23.3872,VALID,114,VALID,0,
2009-12-24, 01:23:04,VALID,999.871,VALID,0,VALID,91.6088,VALID,0,VALID,23.3482,VALID,114,VALID,0,
2009-12-24, 01:24:04,VALID,999.847,VALID,0,VALID,91.586,VALID,0,VALID,23.35,VALID,114,VALID,0,
2009-12-24, 01:25:04,VALID,999.834,VALID,0,VALID,91.8301,VALID,0,VALID,23.3305,VALID,107,VALID,0,
2009-12-24, 01:26:04,VALID,999.782,VALID,0,VALID,92.0285,VALID,0,VALID,23.311,VALID,106,VALID,0,
2009-12-24, 01:27:04,VALID,999.777,VALID,0,VALID,92.0895,VALID,0,VALID,23.3305,VALID,102,VALID,0,
2009-12-24, 01:28:04,VALID,999.76,VALID,0,VALID,92.3337,VALID,0,VALID,23.3305,VALID,99,VALID,0.916797,
2009-12-24, 01:29:04,VALID,999.742,VALID,0,VALID,92.4023,VALID,0,VALID,23.35,VALID,98,VALID,0.711719,
2009-12-24, 01:30:04,VALID,999.753,VALID,0,VALID,92.4634,VALID,0,VALID,23.389,VALID,99,VALID,0.889063,
2009-12-24, 01:31:04,VALID,999.735,VALID,0,VALID,92.5473,VALID,0,VALID,23.3872,VALID,102,VALID,1.08828,
2009-12-24, 01:32:04,VALID,999.73,VALID,0,VALID,92.5015,VALID,0,VALID,23.4458,VALID,100,VALID,1.13203,
2009-12-24, 01:33:04,VALID,999.701,VALID,0,VALID,92.3794,VALID,0,VALID,23.4848,VALID,93,VALID,1.06953,
2009-12-24, 01:34:04,VALID,999.722,VALID,0,VALID,92.1124,VALID,0,VALID,23.5256,VALID,94,VALID,0.749609,
2009-12-24, 01:35:04,VALID,999.694,VALID,0,VALID,91.9674,VALID,0,VALID,23.5238,VALID,94,VALID,0.832031,
2009-12-24, 01:36:04,VALID,999.672,VALID,0,VALID,91.914,VALID,0,VALID,23.5433,VALID,95,VALID,0.788281,
2009-12-24, 01:37:04,VALID,999.639,VALID,0,VALID,91.8835,VALID,0,VALID,23.5823,VALID,98,VALID,0.907812,
2009-12-24, 01:38:04,VALID,999.629,VALID,0,VALID,91.7691,VALID,0,VALID,23.6019,VALID,90,VALID,0.877734,
2009-12-24, 01:39:04,VALID,999.606,VALID,0,VALID,91.6394,VALID,0,VALID,23.6409,VALID,87,VALID,0.690234,
2009-12-24, 01:40:04,VALID,999.611,VALID,0,VALID,91.38,VALID,0,VALID,23.6409,VALID,73,VALID,0.564453,
2009-12-24, 01:41:04,VALID,999.577,VALID,0,VALID,91.1358,VALID,0,VALID,23.6622,VALID,61,VALID,0.88125,
2009-12-24, 01:42:04,VALID,999.57,VALID,0,VALID,91.1358,VALID,0,VALID,23.6994,VALID,71,VALID,1.15547,
2009-12-24, 01:43:04,VALID,999.548,VALID,0,VALID,90.7314,VALID,0,VALID,23.7793,VALID,65,VALID,0.844922,
2009-12-24, 01:44:04,VALID,999.56,VALID,0,VALID,90.0753,VALID,0,VALID,23.7579,VALID,55,VALID,0.773438,
2009-12-24, 01:45:04,VALID,999.55,VALID,0,VALID,89.6251,VALID,0.112286,VALID,23.7597,VALID,53,VALID,0.603516,
2009-12-24, 01:46:04,VALID,999.527,VALID,0,VALID,89.7625,VALID,0,VALID,23.6799,VALID,49,VALID,0.688672,
2009-12-24, 01:47:04,VALID,999.5,VALID,0,VALID,89.8083,VALID,0,VALID,23.6232,VALID,47,VALID,0.373437,
2009-12-24, 01:48:04,VALID,999.505,VALID,0,VALID,90.1211,VALID,0,VALID,23.5646,VALID,47,VALID,0.457422,
2009-12-24, 01:49:04,VALID,999.49,VALID,0,VALID,90.5941,VALID,0,VALID,23.5451,VALID,46,VALID,0.788281,
2009-12-24, 01:50:04,VALID,999.468,VALID,0,VALID,91.0977,VALID,0,VALID,23.5256,VALID,46,VALID,0.679688,
2009-12-24, 01:51:04,VALID,999.481,VALID,0,VALID,91.174,VALID,0,VALID,23.5061,VALID,46,VALID,0.555078,
2009-12-24, 01:52:04,VALID,999.449,VALID,0,VALID,91.2503,VALID,0,VALID,23.4866,VALID,46,VALID,0,
2009-12-24, 01:53:04,VALID,999.436,VALID,0,VALID,91.5783,VALID,0,VALID,23.4671,VALID,46,VALID,0,
2009-12-24, 01:54:04,VALID,999.45,VALID,0,VALID,91.7385,VALID,0,VALID,23.4671,VALID,46,VALID,0,
2009-12-24, 01:55:04,VALID,999.471,VALID,0,VALID,91.9445,VALID,0,VALID,23.4671,VALID,46,VALID,0,
2009-12-24, 01:56:04,VALID,999.445,VALID,0,VALID,92.0743,VALID,0,VALID,23.4866,VALID,46,VALID,0,
2009-12-24, 01:57:04,VALID,999.44,VALID,0,VALID,92.0361,VALID,0,VALID,23.5061,VALID,46,VALID,0,
2009-12-24, 01:58:04,VALID,999.417,VALID,0,VALID,91.9293,VALID,0,VALID,23.5061,VALID,46,VALID,0,
2009-12-24, 01:59:04,VALID,999.412,VALID,0,VALID,91.914,VALID,0,VALID,23.5061,VALID,46,VALID,0,
2009-12-24, 02:00:04,VALID,999.406,VALID,0,VALID,91.9598,VALID,0,VALID,23.5061,VALID,46,VALID,0,
2009-12-24, 02:01:04,VALID,999.393,VALID,0,VALID,91.9903,VALID,0,VALID,23.5061,VALID,46,VALID,0,
2009-12-24, 02:02:04,VALID,999.406,VALID,0,VALID,92.0209,VALID,0,VALID,23.5061,VALID,21,VALID,0,
2009-12-24, 02:03:04,VALID,999.37,VALID,0,VALID,92.0209,VALID,0,VALID,23.5061,VALID,313,VALID,0,
2009-12-24, 02:04:04,VALID,999.396,VALID,0,VALID,92.0285,VALID,0,VALID,23.5256,VALID,274,VALID,0.249609,
2009-12-24, 02:05:04,VALID,999.386,VALID,0,VALID,92.0209,VALID,0,VALID,23.5061,VALID,260,VALID,0.623828,
2009-12-24, 02:06:04,VALID,999.362,VALID,0,VALID,91.9903,VALID,0,VALID,23.5043,VALID,260,VALID,0.260547,
2009-12-24, 02:07:04,VALID,999.375,VALID,0,VALID,91.8835,VALID,0,VALID,23.4848,VALID,257,VALID,0.432031,
2009-12-24, 02:08:04,VALID,999.396,VALID,0,VALID,91.8835,VALID,0,VALID,23.5061,VALID,257,VALID,0.396875,
2009-12-24, 02:09:04,VALID,999.39,VALID,0,VALID,91.8606,VALID,0,VALID,23.4866,VALID,258,VALID,0.500781,
2009-12-24, 02:10:04,VALID,999.408,VALID,0,VALID,91.8148,VALID,0,VALID,23.4475,VALID,273,VALID,0.601953,
2009-12-24, 02:11:04,VALID,999.441,VALID,0,VALID,91.8148,VALID,0,VALID,23.428,VALID,278,VALID,0.303125,
2009-12-24, 02:12:04,VALID,999.453,VALID,0,VALID,91.9217,VALID,0,VALID,23.3872,VALID,279,VALID,0,
2009-12-24, 02:13:04,VALID,999.486,VALID,0,VALID,92.0132,VALID,0,VALID,23.389,VALID,279,VALID,0,
2009-12-24, 02:14:04,VALID,999.47,VALID,0,VALID,92.0285,VALID,0,VALID,23.3695,VALID,279,VALID,0,
2009-12-24, 02:15:04,VALID,999.501,VALID,0,VALID,92.1658,VALID,0,VALID,23.35,VALID,279,VALID,0,
2009-12-24, 02:16:04,VALID,999.501,VALID,0,VALID,92.2268,VALID,0,VALID,23.35,VALID,279,VALID,0,
2009-12-24, 02:17:04,VALID,999.499,VALID,0,VALID,92.3413,VALID,0,VALID,23.3695,VALID,264,VALID,0,
2009-12-24, 02:18:04,VALID,999.504,VALID,0,VALID,92.2879,VALID,0,VALID,23.3695,VALID,264,VALID,0,
2009-12-24, 02:19:04,VALID,999.509,VALID,0,VALID,92.1963,VALID,0,VALID,23.3695,VALID,264,VALID,0,
2009-12-24, 02:20:04,VALID,999.484,VALID,0,VALID,92.1353,VALID,0,VALID,23.3305,VALID,264,VALID,0,
2009-12-24, 02:21:04,VALID,999.49,VALID,0,VALID,92.1582,VALID,0,VALID,23.3305,VALID,264,VALID,0,
2009-12-24, 02:22:04,VALID,999.521,VALID,0,VALID,92.1734,VALID,0,VALID,23.2915,VALID,264,VALID,0,
2009-12-24, 02:23:04,VALID,999.501,VALID,0,VALID,92.2421,VALID,0,VALID,23.2915,VALID,264,VALID,0,
2009-12-24, 02:24:04,VALID,999.521,VALID,0,VALID,92.3489,VALID,0,VALID,23.2915,VALID,264,VALID,0,
2009-12-24, 02:25:04,VALID,999.535,VALID,0,VALID,92.3947,VALID,0,VALID,23.2915,VALID,264,VALID,0,
2009-12-24, 02:26:04,VALID,999.524,VALID,0,VALID,92.3642,VALID,0,VALID,23.2719,VALID,264,VALID,0,
2009-12-24, 02:27:04,VALID,999.573,VALID,0,VALID,92.4328,VALID,0,VALID,23.2719,VALID,264,VALID,0,
2009-12-24, 02:28:04,VALID,999.573,VALID,0,VALID,92.4328,VALID,0,VALID,23.2932,VALID,264,VALID,0,
2009-12-24, 02:29:04,VALID,999.572,VALID,0,VALID,92.4557,VALID,0,VALID,23.2915,VALID,264,VALID,0,
2009-12-24, 02:30:04,VALID,999.589,VALID,0,VALID,92.4481,VALID,0,VALID,23.2915,VALID,264,VALID,0,
2009-12-24, 02:31:04,VALID,999.598,VALID,0,VALID,92.5015,VALID,0,VALID,23.2915,VALID,264,VALID,0,
2009-12-24, 02:32:04,VALID,999.604,VALID,0,VALID,92.6236,VALID,0,VALID,23.3287,VALID,264,VALID,0,
2009-12-24, 02:33:04,VALID,999.599,VALID,0,VALID,92.5473,VALID,0,VALID,23.3695,VALID,264,VALID,0,
2009-12-24, 02:34:04,VALID,999.595,VALID,0,VALID,92.4328,VALID,0,VALID,23.4085,VALID,264,VALID,0,
2009-12-24, 02:35:04,VALID,999.588,VALID,0,VALID,92.3108,VALID,0,VALID,23.4085,VALID,264,VALID,0,
2009-12-24, 02:36:04,VALID,999.623,VALID,0,VALID,92.2116,VALID,0,VALID,23.428,VALID,264,VALID,0,
2009-12-24, 02:37:04,VALID,999.602,VALID,0,VALID,92.1887,VALID,0,VALID,23.4067,VALID,264,VALID,0,
2009-12-24, 02:38:04,VALID,999.644,VALID,0,VALID,92.1658,VALID,0,VALID,23.428,VALID,264,VALID,0,
2009-12-24, 02:39:04,VALID,999.62,VALID,0,VALID,92.0437,VALID,0,VALID,23.428,VALID,264,VALID,0,
2009-12-24, 02:40:04,VALID,999.625,VALID,0,VALID,91.7767,VALID,0,VALID,23.389,VALID,264,VALID,0,
2009-12-24, 02:41:04,VALID,999.615,VALID,0,VALID,91.5936,VALID,0,VALID,23.35,VALID,264,VALID,0,
2009-12-24, 02:42:04,VALID,999.622,VALID,0,VALID,91.8148,VALID,0,VALID,23.311,VALID,264,VALID,0,
2009-12-24, 02:43:04,VALID,999.595,VALID,0,VALID,92.0209,VALID,0,VALID,23.2719,VALID,264,VALID,0,
2009-12-24, 02:44:04,VALID,999.61,VALID,0,VALID,92.0743,VALID,0,VALID,23.2524,VALID,264,VALID,0,
2009-12-24, 02:45:04,VALID,999.596,VALID,0,VALID,92.1963,VALID,0,VALID,23.2719,VALID,188,VALID,0,
2009-12-24, 02:46:04,VALID,999.607,VALID,0,VALID,92.1582,VALID,0,VALID,23.2329,VALID,166,VALID,0,
2009-12-24, 02:47:04,VALID,999.564,VALID,0,VALID,91.9522,VALID,0,VALID,23.1939,VALID,166,VALID,0,
2009-12-24, 02:48:04,VALID,999.539,VALID,0,VALID,91.647,VALID,0,VALID,23.1354,VALID,166,VALID,0,
2009-12-24, 02:49:04,VALID,999.558,VALID,0,VALID,91.9064,VALID,0,VALID,23.1159,VALID,166,VALID,0,
2009-12-24, 02:50:04,VALID,999.543,VALID,0,VALID,92.2192,VALID,0,VALID,23.1354,VALID,166,VALID,0,
2009-12-24, 02:51:04,VALID,999.552,VALID,0,VALID,92.3108,VALID,0,VALID,23.1354,VALID,166,VALID,0,
2009-12-24, 02:52:04,VALID,999.57,VALID,0,VALID,92.3947,VALID,0,VALID,23.1354,VALID,166,VALID,0,
2009-12-24, 02:53:04,VALID,999.582,VALID,0,VALID,92.3794,VALID,0,VALID,23.1354,VALID,166,VALID,0,
2009-12-24, 02:54:04,VALID,999.562,VALID,0,VALID,92.3184,VALID,0,VALID,23.1159,VALID,166,VALID,0,
2009-12-24, 02:55:04,VALID,999.553,VALID,0,VALID,92.2803,VALID,0,VALID,23.0769,VALID,166,VALID,0,
2009-12-24, 02:56:04,VALID,999.557,VALID,0,VALID,92.326,VALID,0,VALID,23.0769,VALID,166,VALID,0,
2009-12-24, 02:57:04,VALID,999.543,VALID,0,VALID,92.3108,VALID,0,VALID,23.0361,VALID,166,VALID,0,
2009-12-24, 02:58:04,VALID,999.569,VALID,0,VALID,92.3871,VALID,0,VALID,23.0378,VALID,166,VALID,0,
2009-12-24, 02:59:04,VALID,999.566,VALID,0,VALID,92.4252,VALID,0,VALID,23.0183,VALID,166,VALID,0,
2009-12-24, 03:00:04,VALID,999.563,VALID,0,VALID,92.3947,VALID,0,VALID,22.9988,VALID,166,VALID,0,
2009-12-24, 03:01:04,VALID,999.572,VALID,0,VALID,92.4939,VALID,0,VALID,22.9988,VALID,166,VALID,0,
2009-12-24, 03:02:04,VALID,999.578,VALID,0,VALID,92.5854,VALID,0,VALID,22.9988,VALID,166,VALID,0,
2009-12-24, 03:03:04,VALID,999.58,VALID,0,VALID,92.6999,VALID,0,VALID,22.9988,VALID,166,VALID,0,
2009-12-24, 03:04:04,VALID,999.558,VALID,0,VALID,92.7914,VALID,0,VALID,22.9988,VALID,166,VALID,0,
2009-12-24, 03:05:04,VALID,999.556,VALID,0,VALID,92.8296,VALID,0,VALID,23.0006,VALID,166,VALID,0,
2009-12-24, 03:06:04,VALID,999.598,VALID,0,VALID,92.8525,VALID,0,VALID,22.9988,VALID,166,VALID,0,
2009-12-24, 03:07:04,VALID,999.545,VALID,0,VALID,92.8983,VALID,0,VALID,22.9776,VALID,166,VALID,0,
2009-12-24, 03:08:04,VALID,999.569,VALID,0,VALID,92.944,VALID,0,VALID,22.9988,VALID,166,VALID,0,
2009-12-24, 03:09:04,VALID,999.569,VALID,0,VALID,92.9822,VALID,0,VALID,22.9988,VALID,166,VALID,0,
2009-12-24, 03:10:04,VALID,999.578,VALID,0,VALID,92.9822,VALID,0,VALID,22.9988,VALID,166,VALID,0,
2009-12-24, 03:11:04,VALID,999.577,VALID,0,VALID,92.9898,VALID,0,VALID,22.9793,VALID,166,VALID,0,
2009-12-24, 03:12:04,VALID,999.569,VALID,0,VALID,93.0432,VALID,0,VALID,22.9793,VALID,166,VALID,0,
2009-12-24, 03:13:04,VALID,999.562,VALID,0,VALID,93.0814,VALID,0.112286,VALID,22.9776,VALID,166,VALID,0,
2009-12-24, 03:14:04,VALID,999.573,VALID,0,VALID,93.1043,VALID,0,VALID,22.9988,VALID,166,VALID,0,
2009-12-24, 03:15:04,VALID,999.6,VALID,0,VALID,93.1577,VALID,0,VALID,23.0183,VALID,166,VALID,0,
2009-12-24, 03:16:04,VALID,999.599,VALID,0,VALID,93.1958,VALID,0,VALID,23.0573,VALID,203,VALID,0,
2009-12-24, 03:17:04,VALID,999.653,VALID,0,VALID,93.15,VALID,0,VALID,23.0361,VALID,204,VALID,0,
2009-12-24, 03:18:04,VALID,999.68,VALID,0,VALID,93.089,VALID,0,VALID,23.0378,VALID,206,VALID,0,
2009-12-24, 03:19:04,VALID,999.681,VALID,0,VALID,93.1119,VALID,0,VALID,23.0573,VALID,226,VALID,0,
2009-12-24, 03:20:04,VALID,999.723,VALID,0,VALID,93.1348,VALID,0,VALID,23.0964,INVALID,360,VALID,0,
2009-12-24, 03:21:04,VALID,999.688,VALID,0,VALID,93.1577,VALID,0,VALID,23.0946,VALID,248,VALID,0.744141,
2009-12-24, 03:22:04,VALID,999.703,VALID,0,VALID,93.1195,VALID,0,VALID,23.1354,VALID,248,VALID,0.512109,
2009-12-24, 03:23:04,VALID,999.711,VALID,0,VALID,93.0661,VALID,0,VALID,23.1549,VALID,230,VALID,0.692969,
2009-12-24, 03:24:04,VALID,999.74,VALID,0,VALID,93.0051,VALID,0,VALID,23.1531,VALID,229,VALID,0.494531,
2009-12-24, 03:25:04,VALID,999.714,VALID,0,VALID,92.8754,VALID,0,VALID,23.1744,VALID,229,VALID,0.764453,
2009-12-24, 03:26:04,VALID,999.699,VALID,0,VALID,92.7991,VALID,0,VALID,23.2134,VALID,229,VALID,0.424609,
2009-12-24, 03:27:04,VALID,999.731,VALID,0,VALID,92.6846,VALID,0,VALID,23.2117,VALID,228,VALID,0.407422,
2009-12-24, 03:28:04,VALID,999.73,VALID,0,VALID,92.5626,VALID,0,VALID,23.2312,VALID,228,VALID,0.495313,
2009-12-24, 03:29:04,VALID,999.768,VALID,0,VALID,92.4405,VALID,0,VALID,23.2719,VALID,195,VALID,0.260156,
2009-12-24, 03:30:04,VALID,999.761,VALID,0,VALID,92.2955,VALID,0.112286,VALID,23.2702,VALID,187,VALID,0.896875,
2009-12-24, 03:31:04,VALID,999.773,VALID,0,VALID,91.914,VALID,0,VALID,23.35,VALID,192,VALID,0.773047,
2009-12-24, 03:32:04,VALID,999.79,VALID,0,VALID,91.6088,VALID,0,VALID,23.4085,VALID,192,VALID,0.767187,
2009-12-24, 03:33:04,VALID,999.822,VALID,0,VALID,91.3113,VALID,0,VALID,23.4475,VALID,188,VALID,0.801172,
2009-12-24, 03:34:04,VALID,999.83,VALID,0,VALID,90.9451,VALID,0,VALID,23.4653,VALID,179,VALID,0.968359,
2009-12-24, 03:35:04,VALID,999.835,VALID,0,VALID,90.3576,VALID,0,VALID,23.5256,VALID,187,VALID,0.936719,
2009-12-24, 03:36:04,VALID,999.825,VALID,0,VALID,90.0143,VALID,0,VALID,23.5646,VALID,188,VALID,0.698047,
2009-12-24, 03:37:04,VALID,999.851,VALID,0,VALID,89.6709,VALID,0,VALID,23.5823,VALID,183,VALID,0.709375,
2009-12-24, 03:38:04,VALID,999.857,VALID,0,VALID,89.8159,VALID,0,VALID,23.6232,VALID,162,VALID,0.700391,
2009-12-24, 03:39:04,VALID,999.837,VALID,0,VALID,89.6938,VALID,0.112286,VALID,23.6019,VALID,160,VALID,0.9625,
2009-12-24, 03:40:04,VALID,999.806,VALID,0,VALID,89.8159,VALID,0,VALID,23.5628,VALID,160,VALID,1.08164,
2009-12-24, 03:41:04,VALID,999.774,VALID,0,VALID,89.7854,VALID,0,VALID,23.5646,VALID,162,VALID,0.91875,
2009-12-24, 03:42:04,VALID,999.752,VALID,0,VALID,89.732,VALID,0,VALID,23.5238,VALID,160,VALID,1.00234,
2009-12-24, 03:43:04,VALID,999.751,VALID,0,VALID,89.8311,VALID,0,VALID,23.5451,VALID,157,VALID,1.03203,
2009-12-24, 03:44:04,VALID,999.76,VALID,0,VALID,90.0219,VALID,0,VALID,23.5451,VALID,154,VALID,1.07578,
2009-12-24, 03:45:04,VALID,999.797,VALID,0,VALID,89.9761,VALID,0,VALID,23.5256,VALID,153,VALID,1.18555,
2009-12-24, 03:46:04,VALID,999.789,VALID,0,VALID,90.1211,VALID,0,VALID,23.5043,VALID,149,VALID,1.0875,
2009-12-24, 03:47:04,VALID,999.784,VALID,0,VALID,90.0906,VALID,0,VALID,23.5256,VALID,149,VALID,1.02891,
2009-12-24, 03:48:04,VALID,999.818,VALID,0,VALID,90.2584,VALID,0,VALID,23.5256,VALID,146,VALID,0.614453,
2009-12-24, 03:49:04,VALID,999.831,VALID,0,VALID,90.4186,VALID,0,VALID,23.5256,VALID,145,VALID,0.515234,
2009-12-24, 03:50:04,VALID,999.819,VALID,0,VALID,90.4491,VALID,0,VALID,23.5256,VALID,145,VALID,0.636328,
2009-12-24, 03:51:04,VALID,999.848,VALID,0,VALID,90.3805,VALID,0,VALID,23.4848,VALID,145,VALID,0.330469,
2009-12-24, 03:52:04,VALID,999.868,VALID,0,VALID,90.3728,VALID,0,VALID,23.5043,VALID,157,VALID,0.511719,